Regional Weather Roundup
Issued by NWS

Home | Current Version | Previous Version | Text Only | Print | Product List | Glossary On
Versions: 1 2 3 4 5 6 7 8 9 10 11 12 13 14 15 16 17 18 19 20 21 22 23 24 25 26 27 28 29 30 31 32 33 34 35 36 37 38 39 40 41 42 43 44 45 46 47 48 49 50
849
ASUS44 KLIX 300605
RWRLA
LOUISIANA WEATHER ROUNDUP
NATIONAL WEATHER SERVICE NEW ORLEANS LA
1200 AM CST FRI JAN 30 2015

NOTE: "FAIR" INDICATES FEW OR NO CLOUDS BELOW 12,000 FEET WITH NO
      SIGNIFICANT WEATHER AND/OR OBSTRUCTIONS TO VISIBILITY.
      SKY/WX - SKY CONDITION AND SIGNIFICANT WEATHER.
      TMP - AIR TEMPERATURE.    DP   - DEWPOINT TEMPERATURE.
      RH  - RELATIVE HUMIDITY.  PRES - PRESSURE.
      HX  - HEAT INDEX.         WCI  - WIND CHILL INDEX.

*  THESE STATIONS ARE NOT NWS OR FAA STATIONS AND ARE NOT UNDER
   NWS QUALITY CONTROL.

LAZ040-048-061>063-065-066-069-300700-
SOUTHEAST LOUISIANA

CITY           SKY/WX    TMP DP  RH WIND       PRES   REMARKS
N.O. AUDUBON     N/A     58  58 100 MISG        N/A
6HR MIN TEMP:  58; 6HR MAX TEMP:  65;

N.O. INTL ARPT PTCLDY    60  55  83 W7        30.23S
6HR MIN TEMP:  60; 6HR MAX TEMP:  70;

N.O. LAKEFRONT MOCLDY    60  55  83 W10       30.23S
6HR MIN TEMP:  60; 6HR MAX TEMP:  70;

N.O. DOWNTOWN* NOT AVBL
SLIDELL        MOCLDY    58  53  84 CALM      30.22S
6HR MIN TEMP:  56; 6HR MAX TEMP:  65;

BATON ROUGE    CLOUDY    62  50  64 N9        30.25R
6HR MIN TEMP:  60; 6HR MAX TEMP:  68;

BOOTHVILLE     CLEAR     62  60  93 W7        30.24F
6HR MIN TEMP:  61; 6HR MAX TEMP:  63;

BELLE CHASSE   PTCLDY    59  55  87 W5        30.23S
6HR MIN TEMP:  59; 6HR MAX TEMP:  66;

BOGALUSA*        N/A     60  51  72 N9        30.26R
6HR MIN TEMP:  52; 6HR MAX TEMP:  67;

GALLIANO*      CLEAR     55  54  98 SW6       30.25S
6HR MIN TEMP:  54; 6HR MAX TEMP:  65;

NEW ROADS*     FAIR      60  45  57 N20G25    30.27R
6HR MIN TEMP:  55; 6HR MAX TEMP:  66;

GONZALES*      FAIR      61  58  91 W5        30.24S
6HR MIN TEMP:  60; 6HR MAX TEMP:  70;

HAMMOND*       CLOUDY    57  54  88 NW3       30.26R
HOUMA*         FOG       57  57 100 SW3       30.25S VSB 1/4
6HR MIN TEMP:  56; 6HR MAX TEMP:  66;

PORT FOURCHON* CLEAR     63  61  94 W8        30.28S

$$

LAZ041-044-053-054-300700-
SOUTHWEST LOUISIANA

CITY           SKY/WX    TMP DP  RH WIND       PRES   REMARKS
LAKE CHARLES   CLEAR     61  50  67 N13       30.29R
6HR MIN TEMP:  58; 6HR MAX TEMP:  66;

LAFAYETTE      PTCLDY    60  57  89 NW9       30.27R
6HR MIN TEMP:  60; 6HR MAX TEMP:  68;

PATTERSON      CLEAR     55  54  94 W6        30.26F
6HR MIN TEMP:  55; 6HR MAX TEMP:  64;

SALT POINT       N/A     54  54 100 CALM      30.25S
6HR MIN TEMP:  54; 6HR MAX TEMP:  60; 6HR PCP:  0.01;

NEW IBERIA     PTCLDY    59  57  93 NW7       30.27R
6HR MIN TEMP:  59; 6HR MAX TEMP:  67;

CHENAULT AIRPK CLEAR     59  50  72 N8        30.30R
6HR MIN TEMP:  58; 6HR MAX TEMP:  68;


$$

LAZ027-028-300700-
CENTRAL LOUISIANA

CITY           SKY/WX    TMP DP  RH WIND       PRES   REMARKS
FORT POLK      PTCLDY    58  42  55 N12       30.33R
6HR MIN TEMP:  58; 6HR MAX TEMP:  67;

ALEXANDRIA INT MOCLDY    58  40  51 N10       30.32R
6HR MIN TEMP:  58; 6HR MAX TEMP:  70;

ALEXANDRIA     MOCLDY    56  42  59 VRB6G21   30.34R
6HR MIN TEMP:  56; 6HR MAX TEMP:  65;


$$

LAZ001-002-300700-
NORTHWEST LOUISIANA

CITY           SKY/WX    TMP DP  RH WIND       PRES   REMARKS
SHREVEPORT     CLOUDY    49  35  58 N15       30.43R
6HR MIN TEMP:  49; 6HR MAX TEMP:  67;

BARKSDALE AFB  MOCLDY    48  34  59 N10       30.44R
6HR MIN TEMP:  48; 6HR MAX TEMP:  64;

DTN SHREVEPORT MOCLDY    48  33  56 N8        30.44R
6HR MIN TEMP:  48; 6HR MAX TEMP:  65;


$$

LAZ014-016-300700-
NORTHEAST LOUISIANA

CITY           SKY/WX    TMP DP  RH WIND       PRES   REMARKS
MONROE         MOCLDY    47  35  63 N14G21    30.42R
6HR MIN TEMP:  47; 6HR MAX TEMP:  66;

TALLULAH       PTCLDY    45  35  68 N18G30    30.41R
6HR MIN TEMP:  45; 6HR MAX TEMP:  66;


$$




USA.gov is the U.S. government's official web portal to all federal, state and local government web resources and services.